Flag for Japan Weather past 2 weeks in Minamisōma, Japan

Now
66 °F

Partly sunny.


Feels Like: 66 °F
Forecast: 68 / 71 °F
Wind: 6 mph from Northwest

Location: Sendai Airport

Current Time: Aug 31, 2015 at 7:33:41 AM

Latest Report: Aug 31, 2015 at 6:00 AM


Visibility: N/A

Pressure: 29.98 "Hg

Humidity: 94%

Dew point: 64 °F

Location of MinamisōmaLocation

Historic Weather in Minamisōma — Graph

°F

Minamisōma temperature yesterday

Maximum temperature yesterday: 70 °F (at 3:00 PM)
Minimum temperature yesterday: 66 °F (at 6:00 AM)
Average temperature yesterday: 67 °F

Past Weeks' High & Low Weather Summary

 TemperatureHumidityPressure
High90 °F (Aug 18, 11:00 AM)100% (Aug 17, 7:47 PM)29.98 "Hg (Aug 17, 7:47 PM)
Low64 °F (Aug 25, 6:00 AM)43% (Aug 19, 11:00 AM)29.56 "Hg (Aug 22, 10:45 AM)
Average73 °F82%29.83 "Hg
* Reported Aug 16 6:00 AM — Aug 31 6:00 AM, Minamisōma, Weather by CustomWeather, © 2015

Note: Actual official high and low records may vary slightly from our data, if they occured in-between our weather recording intervals... More about our weather records

Advertising

Minamisōma weather history for previous 24 hours

 ConditionsComfort  
Time TempWeatherWind HumidityBarometerVisibility
6:00 AM
Mon, Aug 31
66 °FPartly sunny.6 mph94%29.98 "HgN/A
9:00 PM
Sun, Aug 30
66 °FLight rain. Partly cloudy.7 mph94%29.95 "HgN/A
8:00 PM66 °FLight rain. Partly cloudy.6 mph100%29.95 "HgN/A
7:00 PM66 °FLight rain. Fog.7 mph100%29.92 "Hg2 mi
6:00 PM68 °FLight rain. Broken clouds.9 mph94%29.92 "HgN/A
5:00 PM68 °FLight rain. Partly sunny.8 mph94%29.89 "Hg5 mi
4:47 PM70 °FLight rain. Partly sunny.7 mph88%29.89 "Hg5 mi
4:00 PM68 °FLight rain. Partly sunny.9 mph94%29.89 "Hg5 mi
3:00 PM70 °FLight rain. Broken clouds.8 mph94%29.89 "HgN/A
2:00 PM68 °FLight rain. Partly sunny.10 mph94%29.92 "Hg4 mi
1:49 PM68 °FLight rain. Partly sunny.9 mph100%29.92 "Hg4 mi
12:00 PM68 °FRain. Fog.6 mph94%29.95 "Hg1 mi
11:00 AM66 °FLight rain. Fog.7 mph100%29.92 "Hg1 mi
10:47 AM66 °FLight rain. Fog.7 mph100%29.95 "Hg2 mi
10:00 AM66 °FLight rain. Partly sunny.7 mph94%29.95 "Hg4 mi
9:00 AM66 °FLight rain. Broken clouds.7 mph94%29.95 "Hg4 mi
8:00 AM66 °FRain. Fog.6 mph100%29.95 "Hg3 mi
7:00 AM66 °FLight rain. Broken clouds.6 mph94%29.95 "Hg5 mi
Weather by CustomWeather, © 2015

See weather overviewHow to use our weather pages